| time (UTC) | temp F | wind direction | speed MPH | gust MPH | rain 1hr in | rain 24hr in | rain mn in | humidity % | barometer mb |
| 20260510071510 | 50 | 216 | 0.0 | 9.0 | 0.00 | 0.00 | 0.00 | 50 | 1021.4 |
| 20260510070032 | 51 | 146 | 9.0 | 13.0 | 0.00 | 0.00 | 0.00 | 48 | 1021.3 |
| 20260510064521 | 51 | 142 | 6.0 | 12.0 | 0.00 | 0.00 | 0.00 | 49 | 1021.3 |
| 20260510063023 | 51 | 125 | 7.0 | 13.0 | 0.00 | 0.00 | 0.00 | 48 | 1021.4 |
| 20260510061522 | 52 | 117 | 5.0 | 12.0 | 0.00 | 0.00 | 0.00 | 47 | 1021.6 |
| 20260510060020 | 52 | 125 | 5.0 | 9.0 | 0.00 | 0.00 | 0.00 | 47 | 1021.6 |
| 20260510054515 | 53 | 157 | 6.0 | 11.0 | 0.00 | 0.00 | 0.00 | 46 | 1021.5 |
| 20260510051531 | 52 | 141 | 9.0 | 14.0 | 0.00 | 0.00 | 0.00 | 47 | 1021.4 |
| 20260510050027 | 53 | 123 | 9.0 | 14.0 | 0.00 | 0.00 | 0.00 | 45 | 1021.3 |
| 20260510044524 | 53 | 119 | 10.0 | 15.0 | 0.00 | 0.00 | 0.00 | 45 | 1021.4 |
| 20260510043026 | 54 | 128 | 10.0 | 13.0 | 0.00 | 0.00 | 0.00 | 45 | 1021.3 |
| 20260510041523 | 54 | 130 | 10.0 | 14.0 | 0.00 | 0.00 | 0.00 | 45 | 1021.0 |
| 20260510040023 | 55 | 129 | 7.0 | 11.0 | 0.00 | 0.00 | 0.00 | 46 | 1020.8 |
| 20260510034519 | 55 | 139 | 7.0 | 10.0 | 0.00 | 0.00 | 0.00 | 45 | 1020.7 |
| 20260510033015 | 56 | 125 | 8.0 | 11.0 | 0.00 | 0.00 | 0.00 | 45 | 1020.4 |
| 20260510031529 | 59 | 119 | 4.0 | 8.0 | 0.00 | 0.00 | 0.00 | 39 | 1020.3 |
| 20260510030027 | 61 | 229 | 0.0 | 3.0 | 0.00 | 0.00 | 0.00 | 36 | 1020.3 |
| 20260510024527 | 63 | 91 | 1.0 | 1.0 | 0.00 | 0.00 | 0.00 | 31 | 1020.3 |
| 20260510023026 | 63 | 88 | 0.0 | 2.0 | 0.00 | 0.00 | 0.00 | 30 | 1020.1 |
| 20260510021533 | 63 | 88 | 2.0 | 2.0 | 0.00 | 0.00 | 0.00 | 35 | 1020.1 |
| 20260510020007 | 65 | 36 | 1.0 | 2.0 | 0.00 | 0.00 | 0.00 | 30 | 1020.1 |
| 20260510013022 | 66 | 9 | 1.0 | 2.0 | 0.00 | 0.00 | 0.00 | 27 | 1019.8 |
| 20260510011516 | 66 | 336 | 2.0 | 3.0 | 0.00 | 0.00 | 0.00 | 27 | 1019.9 |
| 20260510004516 | 66 | 40 | 5.0 | 6.0 | 0.00 | 0.00 | 0.00 | 27 | 1019.9 |
| 20260510003010 | 67 | 22 | 3.0 | 5.0 | 0.00 | 0.00 | 0.00 | 28 | 1019.9 |
| 20260510000027 | 66 | 86 | 5.0 | 8.0 | 0.00 | 0.00 | 0.00 | 27 | 1019.8 |
| 20260509234525 | 66 | 46 | 6.0 | 9.0 | 0.00 | 0.00 | 0.00 | 27 | 1019.8 |
| 20260509231524 | 66 | 46 | 4.0 | 8.0 | 0.00 | 0.00 | 0.00 | 27 | 1019.9 |
| 20260509230019 | 67 | 67 | 3.0 | 5.0 | 0.00 | 0.00 | 0.00 | 30 | 1020.0 |
| 20260509224515 | 67 | 29 | 5.0 | 8.0 | 0.00 | 0.00 | 0.00 | 24 | 1020.3 |
| 20260509223016 | 69 | 276 | 3.0 | 4.0 | 0.00 | 0.00 | 0.00 | 24 | 1020.5 |
| 20260509221510 | 67 | 233 | 6.0 | 11.0 | 0.00 | 0.00 | 0.00 | 30 | 1020.6 |
| 20260509220025 | 66 | 31 | 4.0 | 7.0 | 0.00 | 0.00 | 0.00 | 29 | 1020.7 |
| 20260509214534 | 66 | 352 | 3.0 | 10.0 | 0.00 | 0.00 | 0.00 | 30 | 1020.7 |
| 20260509213024 | 66 | 344 | 5.0 | 13.0 | 0.00 | 0.00 | 0.00 | 34 | 1020.8 |
| 20260509211526 | 65 | 350 | 1.0 | 6.0 | 0.00 | 0.00 | 0.00 | 37 | 1020.7 |
| 20260509210020 | 67 | 243 | 4.0 | 10.0 | 0.00 | 0.00 | 0.00 | 30 | 1020.8 |
| 20260509204529 | 67 | 215 | 3.0 | 10.0 | 0.00 | 0.00 | 0.00 | 32 | 1020.8 |
| 20260509203017 | 66 | 236 | 1.0 | 10.0 | 0.00 | 0.00 | 0.00 | 31 | 1020.8 |
| 20260509201516 | 65 | 241 | 4.0 | 8.0 | 0.00 | 0.00 | 0.00 | 30 | 1021.0 |
| 20260509200034 | 65 | 35 | 3.0 | 9.0 | 0.00 | 0.00 | 0.00 | 30 | 1020.9 |
| 20260509194537 | 64 | 5 | 2.0 | 7.0 | 0.00 | 0.00 | 0.00 | 36 | 1021.0 |
| 20260509193034 | 63 | 265 | 3.0 | 9.0 | 0.00 | 0.00 | 0.00 | 33 | 1021.1 |
| 20260509191526 | 62 | 83 | 4.0 | 10.0 | 0.00 | 0.00 | 0.00 | 33 | 1021.2 |
| 20260509190027 | 62 | 360 | 2.0 | 8.0 | 0.00 | 0.00 | 0.00 | 33 | 1021.3 |
| 20260509184528 | 62 | 243 | 4.0 | 10.0 | 0.00 | 0.00 | 0.00 | 31 | 1021.3 |
| 20260509183025 | 63 | 267 | 1.0 | 6.0 | 0.00 | 0.00 | 0.00 | 33 | 1021.3 |
| 20260509181517 | 63 | 230 | 2.0 | 4.0 | 0.00 | 0.00 | 0.00 | 32 | 1021.5 |
| 20260509180027 | 62 | 232 | 5.0 | 7.0 | 0.00 | 0.00 | 0.00 | 35 | 1021.5 |
| 20260509174527 | 62 | 5 | 1.0 | 4.0 | 0.00 | 0.00 | 0.00 | 35 | 1021.6 |
| 20260509173024 | 61 | 165 | 2.0 | 9.0 | 0.00 | 0.00 | 0.00 | 39 | 1021.6 |
| 20260509171526 | 59 | 223 | 4.0 | 6.0 | 0.00 | 0.00 | 0.00 | 38 | 1021.6 |
| 20260509170008 | 59 | 96 | 4.0 | 7.0 | 0.00 | 0.00 | 0.00 | 37 | 1021.7 |
| 20260509164507 | 58 | 5 | 3.0 | 6.0 | 0.00 | 0.00 | 0.00 | 36 | 1021.8 |
| 20260509163011 | 59 | 224 | 3.0 | 5.0 | 0.00 | 0.00 | 0.00 | 33 | 1021.8 |
| 20260509161507 | 58 | 97 | 2.0 | 4.0 | 0.00 | 0.00 | 0.00 | 38 | 1021.7 |
| 20260509160004 | 58 | 136 | 1.0 | 7.0 | 0.00 | 0.00 | 0.00 | 35 | 1021.7 |
| 20260509154522 | 57 | 117 | 1.0 | 5.0 | 0.00 | 0.00 | 0.00 | 36 | 1021.7 |
| 20260509153015 | 57 | 88 | 1.0 | 6.0 | 0.00 | 0.00 | 0.00 | 37 | 1021.7 |
| 20260509151516 | 58 | 52 | 1.0 | 4.0 | 0.00 | 0.00 | 0.00 | 37 | 1021.6 |
| 20260509150018 | 57 | 97 | 1.0 | 3.0 | 0.00 | 0.00 | 0.00 | 35 | 1021.6 |
| 20260509144513 | 56 | 190 | 3.0 | 6.0 | 0.00 | 0.00 | 0.00 | 37 | 1021.5 |
| 20260509143015 | 56 | 258 | 2.0 | 4.0 | 0.00 | 0.00 | 0.00 | 40 | 1021.5 |
| 20260509140004 | 54 | 146 | 1.0 | 4.0 | 0.00 | 0.00 | 0.00 | 43 | 1021.2 |
| 20260509134518 | 54 | 170 | 0.0 | 6.0 | 0.00 | 0.00 | 0.00 | 43 | 1020.9 |
| 20260509133021 | 53 | 242 | 3.0 | 10.0 | 0.00 | 0.00 | 0.00 | 43 | 1020.6 |
| 20260509131529 | 52 | 257 | 1.0 | 6.0 | 0.00 | 0.00 | 0.00 | 45 | 1020.3 |
| 20260509130023 | 51 | 236 | 1.0 | 4.0 | 0.00 | 0.00 | 0.00 | 47 | 1020.1 |
| 20260509124527 | 49 | 119 | 1.0 | 8.0 | 0.00 | 0.00 | 0.00 | 48 | 1019.9 |
| 20260509123009 | 49 | 117 | 0.0 | 4.0 | 0.00 | 0.00 | 0.00 | 48 | 1020.0 |
| 20260509121511 | 49 | 132 | 2.0 | 6.0 | 0.00 | 0.00 | 0.00 | 46 | 1019.8 |
| 20260509120033 | 49 | 119 | 1.0 | 10.0 | 0.00 | 0.00 | 0.00 | 46 | 1019.8 |
| 20260509114523 | 49 | 160 | 1.0 | 7.0 | 0.00 | 0.00 | 0.00 | 47 | 1019.7 |
| 20260509113019 | 49 | 133 | 1.0 | 3.0 | 0.00 | 0.00 | 0.00 | 47 | 1019.5 |
| 20260509111529 | 51 | 302 | 2.0 | 11.0 | 0.00 | 0.00 | 0.00 | 46 | 1019.4 |
| 20260509104518 | 51 | 231 | 0.0 | 6.0 | 0.00 | 0.00 | 0.00 | 44 | 1019.2 |
| 20260509103011 | 51 | 196 | 0.0 | 4.0 | 0.00 | 0.00 | 0.00 | 43 | 1019.4 |
| 20260509101509 | 51 | 225 | 4.0 | 6.0 | 0.00 | 0.00 | 0.00 | 42 | 1019.4 |
| 20260509100031 | 51 | 244 | 0.0 | 3.0 | 0.00 | 0.00 | 0.00 | 44 | 1019.4 |
| 20260509094524 | 51 | 190 | 0.0 | 2.0 | 0.00 | 0.00 | 0.00 | 45 | 1019.2 |
| 20260509093023 | 51 | 272 | 2.0 | 7.0 | 0.00 | 0.00 | 0.00 | 45 | 1019.2 |
| 20260509091523 | 51 | 172 | 1.0 | 3.0 | 0.00 | 0.00 | 0.00 | 45 | 1019.1 |
| 20260509084517 | 51 | 230 | 1.0 | 3.0 | 0.00 | 0.00 | 0.00 | 42 | 1018.8 |
| 20260509081526 | 52 | 225 | 1.0 | 4.0 | 0.00 | 0.00 | 0.00 | 42 | 1018.6 |
| 20260509080028 | 52 | 225 | 2.0 | 6.0 | 0.00 | 0.00 | 0.00 | 40 | 1018.7 |
| 20260509074526 | 53 | 250 | 2.0 | 8.0 | 0.00 | 0.00 | 0.00 | 39 | 1018.7 |
| 20260509073025 | 53 | 219 | 3.0 | 8.0 | 0.00 | 0.00 | 0.00 | 38 | 1018.4 |